DateTimeUTC,F1_A11,F1_S11,BsB_S11,BsG_S11,BsR_S11,BbsB_S11,BbsG_S11,BbsR_S11,BaB_A11,BaG_A11,BaR_A11,Tu_S11,T_S11,Uu_S11,U_S11,P_S11,T1_A11
2021-08-10T13:00:00Z,00040200,20000000,,,,,,,0000.08,0000.40,0000.13,18.2,24.8,03.3,02.2,0674.3,31.0
2021-08-10T13:01:00Z,00040200,20000000,,,,,,,-000.14,-000.33,-000.01,18.2,24.8,03.3,02.2,0674.3,31.0
2021-08-10T13:02:00Z,00040200,20000000,,,,,,,-000.13,-000.25,-000.04,18.2,24.8,03.3,02.2,0674.3,31.0
2021-08-10T13:03:00Z,00040200,60000000,,,,,,,0000.42,0000.39,0000.55,18.2,24.8,03.3,02.2,0674.3,31.0
2021-08-10T13:04:00Z,00040200,40000000,0001.94,0001.12,0000.32,0000.03,0000.33,0000.20,0000.15,-000.09,-000.25,18.3,24.7,03.4,02.3,0675.3,31.0
2021-08-10T13:05:00Z,00040200,00000000,0000.83,0001.22,0000.80,0000.13,0000.14,0000.02,0000.24,0000.30,0000.45,18.4,24.6,03.4,02.3,0675.4,31.0
2021-08-10T13:06:00Z,00040200,00000000,0001.89,0000.83,0000.36,0000.39,0000.28,-000.05,0000.02,0000.33,0000.10,18.4,24.6,03.5,02.4,0675.4,31.0
2021-08-10T13:07:00Z,00040200,00000000,0000.66,0000.88,0000.42,-000.28,0000.08,0000.08,0000.38,0000.14,-000.03,18.4,24.6,03.5,02.4,0675.4,31.0
2021-08-10T13:08:00Z,00040200,00000000,0001.40,0001.20,0000.74,0000.43,0000.11,0000.21,-000.10,0000.15,0000.02,18.4,24.6,03.5,02.4,0675.4,31.0
2021-08-10T13:09:00Z,00040200,00000000,0001.30,0001.00,0000.81,0000.48,0000.23,-000.03,0000.25,0000.02,0000.27,18.4,24.6,03.4,02.4,0675.4,31.0
2021-08-10T13:10:00Z,00040200,00000000,0001.25,0001.05,0000.22,-000.04,0000.20,0000.01,0000.12,0000.02,0000.19,18.4,24.6,03.4,02.3,0675.4,31.0
2021-08-10T13:11:00Z,00040200,00000000,0001.74,0000.70,0000.52,0000.40,0000.06,0000.21,0000.14,0000.37,0000.08,18.4,24.6,03.3,02.3,0675.4,31.0
2021-08-10T13:12:00Z,00040200,00000000,0000.97,0000.79,0000.40,-000.37,0000.57,0000.22,-000.04,-000.08,-000.31,18.4,24.6,03.4,02.3,0675.4,31.0
2021-08-10T13:13:00Z,00040200,00000000,0001.06,0000.82,0000.50,-000.20,0000.43,0000.10,-000.07,-000.29,0000.55,18.4,24.6,03.3,02.3,0675.4,31.0
2021-08-10T13:14:00Z,00040200,00000000,0001.34,0001.02,0000.41,0000.49,0000.32,0000.18,0000.24,0000.44,-000.34,18.4,24.6,03.3,02.2,0675.4,31.0
2021-08-10T13:15:00Z,00040200,00000000,0000.80,0000.68,0000.57,0000.35,0000.21,0000.07,0000.16,-000.02,0000.20,18.4,24.6,03.3,02.3,0675.4,31.0
2021-08-10T13:16:00Z,00040200,00000000,0001.24,0001.08,0000.09,0000.24,0000.27,0000.23,-000.04,0000.17,0000.33,18.4,24.6,03.3,02.2,0675.4,31.0
2021-08-10T13:17:00Z,00040200,00000000,0001.38,0000.62,0000.33,-000.21,0000.33,0000.53,0000.00,0000.16,0000.09,18.5,24.6,03.3,02.3,0675.4,31.0
2021-08-10T13:18:00Z,00040200,00000000,0001.13,0000.75,0000.26,0000.46,0000.16,0000.20,0000.54,0000.12,0000.33,18.4,24.6,03.4,02.3,0675.5,31.0
2021-08-10T13:19:00Z,00040200,00000000,0001.02,0000.86,0000.37,0000.02,0000.34,-000.27,-000.13,-000.11,-000.25,18.5,24.6,03.4,02.3,0675.5,31.0
2021-08-10T13:20:00Z,00040200,00000000,0000.80,0000.89,0000.34,0000.59,0000.19,0000.05,0000.45,0000.49,0000.43,18.5,24.6,03.3,02.3,0675.5,31.0
2021-08-10T13:21:00Z,00040200,00000000,0000.57,0000.97,0000.10,0000.40,0000.34,-000.06,-000.13,-000.01,-000.13,18.5,24.7,03.3,02.3,0675.5,31.0
2021-08-10T13:22:00Z,00040200,00000000,0001.68,0000.77,0000.47,0000.09,0000.53,-000.08,-000.12,-000.06,-000.22,18.5,24.7,03.4,02.3,0675.5,31.0
2021-08-10T13:23:00Z,00040200,00000000,0001.50,0001.05,0000.47,0000.48,0000.37,0000.14,0000.50,0000.41,0000.60,18.5,24.6,03.1,02.2,0675.5,31.0
2021-08-10T13:24:00Z,00040200,00000000,0001.04,0001.27,0000.38,-000.24,0000.13,0000.02,-000.26,-000.24,-000.18,18.5,24.7,03.2,02.2,0675.5,31.0
2021-08-10T13:25:00Z,00040200,00000000,0001.45,0000.84,0000.48,0000.27,0000.06,0000.15,0000.36,0000.45,0000.37,18.5,24.7,03.3,02.2,0675.5,31.0
2021-08-10T13:26:00Z,00040200,00000000,0000.88,0000.88,0000.76,0000.39,-000.07,0000.21,0000.08,-000.19,-000.01,18.5,24.7,03.3,02.3,0675.5,31.0
2021-08-10T13:27:00Z,00040200,00000000,0000.99,0000.78,0000.37,-000.03,0000.28,0000.17,0000.11,0000.17,0000.42,18.5,24.7,03.3,02.2,0675.5,31.0
2021-08-10T13:28:00Z,00040200,00000000,0001.38,0000.78,0000.29,0000.61,0000.29,0000.23,0000.22,0000.49,-000.02,18.5,24.7,03.3,02.3,0675.5,31.0
2021-08-10T13:29:00Z,00040200,00000000,0000.75,0000.65,0000.47,0000.18,-000.01,0000.06,0000.31,0000.24,0000.11,18.5,24.7,03.3,02.3,0675.5,31.0
2021-08-10T13:30:00Z,00040200,00000000,0001.76,0000.62,0000.52,0000.70,0000.31,-000.05,0000.18,-000.11,0000.01,18.5,24.7,03.3,02.3,0675.5,31.0
2021-08-10T13:31:00Z,00040200,00000000,0001.03,0001.04,0000.46,0000.29,0000.41,-000.08,-000.00,-000.05,0000.32,18.5,24.7,03.3,02.3,0675.5,31.0
2021-08-10T13:32:00Z,00040200,00000000,0001.42,0000.85,0000.69,-000.75,0000.52,0000.36,0000.65,0000.76,0000.16,18.5,24.7,03.4,02.3,0675.5,31.0
2021-08-10T13:33:00Z,00040200,00000000,0001.46,0000.94,0000.53,0000.25,0000.30,0000.41,0000.33,0000.30,0001.21,18.5,24.7,03.5,02.4,0675.5,31.0
2021-08-10T13:34:00Z,00040200,00000000,0001.64,0001.05,0000.83,-000.20,0000.36,0000.30,0000.17,0000.30,-000.20,18.5,24.7,03.4,02.4,0675.5,31.0
2021-08-10T13:35:00Z,00040200,00000000,0001.09,0001.13,0000.33,0000.58,0000.28,0000.20,0000.32,0000.31,0000.05,18.5,24.7,03.5,02.4,0675.5,31.0
2021-08-10T13:36:00Z,00040200,00000000,0001.85,0001.06,0000.51,0000.58,0000.20,0000.03,0000.44,0000.51,0000.51,18.5,24.7,03.5,02.4,0675.6,31.0
2021-08-10T13:37:00Z,00040200,00000000,0001.16,0001.31,0000.19,-000.09,0000.60,-000.00,0000.30,-000.19,0000.16,18.5,24.7,03.5,02.4,0675.6,31.0
2021-08-10T13:38:00Z,00040200,00000000,0001.56,0000.97,0000.16,0000.00,0000.05,-000.38,-000.26,-000.02,-000.02,18.5,24.7,03.5,02.4,0675.6,31.0
2021-08-10T13:39:00Z,00040200,00000000,0001.55,0000.84,0000.19,0000.68,0000.13,0000.12,0000.42,0000.58,0000.18,18.5,24.7,03.6,02.5,0675.6,31.0
2021-08-10T13:40:00Z,00040200,00000000,0001.20,0000.98,0000.41,0000.08,0000.31,-000.05,0000.50,0000.39,0000.26,18.5,24.7,03.6,02.5,0675.6,31.0
2021-08-10T13:41:00Z,00040200,00000000,0000.66,0000.92,-000.01,-000.38,0000.29,0000.01,-000.06,0000.26,0000.26,18.5,24.7,03.7,02.5,0675.6,31.0
2021-08-10T13:42:00Z,00040200,00000000,0001.46,0000.74,0000.47,0000.01,0000.16,0000.12,0000.54,0000.36,0000.33,18.5,24.7,03.8,02.6,0675.6,31.0
2021-08-10T13:43:00Z,00040200,00000000,0000.83,0001.00,0000.52,0000.26,0000.01,0000.18,0000.17,0000.36,0000.77,18.5,24.7,03.9,02.6,0675.6,31.0
2021-08-10T13:44:00Z,00040200,00000000,0001.44,0000.89,0000.58,0000.28,0000.22,0000.23,0000.67,0000.24,0000.24,18.5,24.7,03.9,02.7,0675.6,31.0
2021-08-10T13:45:00Z,00040200,00000000,0001.53,0001.06,0000.08,0000.17,0000.46,-000.24,0000.05,0000.23,0000.23,18.5,24.7,03.9,02.7,0675.6,31.0
2021-08-10T13:46:00Z,00040200,00000000,0001.42,0000.97,0000.37,0000.41,0000.36,0000.29,0000.08,-000.03,-000.21,18.5,24.7,03.9,02.7,0675.6,31.0
2021-08-10T13:47:00Z,00040200,00000000,0001.01,0000.76,0000.37,0000.53,-000.09,0000.38,-000.11,0000.09,0000.01,18.5,24.7,03.9,02.7,0675.7,31.0
2021-08-10T13:48:00Z,00040200,00000000,0001.00,0000.89,0000.41,-000.19,0000.01,-000.11,0000.19,0000.13,0000.33,18.5,24.7,03.8,02.6,0675.7,31.0
2021-08-10T13:49:00Z,00040200,00000000,0000.87,0000.82,0000.39,-000.37,0000.32,-000.14,0000.47,0000.32,0000.03,18.5,24.7,03.7,02.5,0675.7,31.0
2021-08-10T13:50:00Z,00040200,00000000,0001.52,0000.90,0000.38,0000.06,0000.12,0000.18,-000.00,0000.14,0000.20,18.5,24.7,03.8,02.6,0675.7,31.0
2021-08-10T13:51:00Z,00040200,00000000,0000.96,0000.73,0000.41,-000.23,0000.12,0000.17,-000.17,-000.35,-000.46,18.5,24.7,03.8,02.6,0675.7,31.0
2021-08-10T13:52:00Z,00040200,00000000,0000.72,0000.90,0000.35,-000.41,0000.31,0000.25,0000.08,0000.99,0000.73,18.5,24.7,03.8,02.6,0675.7,31.0
2021-08-10T13:53:00Z,00040200,00000000,0000.73,0000.89,0000.13,-000.54,0000.17,0000.34,0000.48,-000.34,-000.05,18.6,24.7,03.7,02.6,0675.7,31.0
2021-08-10T13:54:00Z,00040200,00000000,0001.79,0000.91,0000.32,0000.13,0000.28,0000.17,-000.06,0000.17,0000.05,18.7,24.8,03.6,02.5,0675.7,31.0
2021-08-10T13:55:00Z,00040200,00000000,0000.99,0001.03,0000.24,-000.34,0000.13,0000.09,0000.30,0000.11,0000.28,18.8,24.9,03.7,02.5,0675.7,31.0
2021-08-10T13:56:00Z,00040200,00000000,0000.93,0000.82,0000.75,0000.10,0000.06,0000.17,-000.24,0000.11,-000.00,18.8,24.9,03.6,02.5,0675.7,31.0
2021-08-10T13:57:00Z,00040200,40000000,,,,,,,0000.50,0000.32,0000.20,18.9,24.9,03.5,02.4,0675.7,31.1
2021-08-10T13:58:00Z,00040200,60000000,,,,,,,0000.00,-000.18,-000.05,18.7,25.0,03.5,02.4,0674.7,31.0
2021-08-10T13:59:00Z,00040200,20000000,,,,,,,0000.03,-000.15,0000.05,18.7,25.1,03.6,02.4,0674.7,31.0
